Regional Weather Roundup
Issued by NWS

Home | Current Version | Previous Version | Graphics & Text | Print | Product List | Glossary Off
Versions: 1 2 3 4 5 6 7 8 9 10 11 12 13 14 15 16 17 18 19 20 21 22 23 24 25 26 27 28 29 30 31 32 33 34 35 36 37 38 39 40 41 42 43 44 45 46 47 48 49 50

000
ASUS43 KLSX 162107
RWRMO

WEATHER SUMMARY FOR MISSOURI
NATIONAL WEATHER SERVICE SPRINGFIELD MO
400 PM CDT TUE SEP 16 2014

NOTE: "FAIR" INDICATES FEW OR NO CLOUDS BELOW 12,000 FEET WITH NO
       SIGNIFICANT WEATHER AND/OR OBSTRUCTIONS TO VISIBILITY.
       CURRENT SKY AND/OR WEATHER CONDITIONS ARE NOT AVAILABLE FOR
       CHILLICOTHE AND FARMINGTON.

MOZ001>031-035>038-043-044-053-054-162200-
...NORTHERN AND WESTERN MISSOURI...

CITY           SKY/WX    TMP DP  RH WIND       PRES   REMARKS
KANSAS CTY INT SUNNY     69  50  50 S6        30.10F
KANSAS C DTWN  SUNNY     72  50  45 CALM      30.09F
LEE`S SUMMIT   SUNNY     70  52  52 CALM      30.10F
ST JOSEPH      SUNNY     69  52  54 SE7       30.09F
CHILLICOTHE      N/A     69  50  50 E6        30.12F
KIRKSVILLE     SUNNY     67  47  48 VRB3      30.14F

$$
MOZ066>068-077>081-088>096-101>105-162200-
...SOUTHWEST MISSOURI...

CITY           SKY/WX    TMP DP  RH WIND       PRES   REMARKS
SPRINGFIELD    CLOUDY    73  60  63 SE3       30.10F
JOPLIN         CLOUDY    74  64  71 CALM      30.09F

$$
MOZ032>034-039>042-045>050-055>058-069>072-162200-
...CENTRAL MISSOURI...

CITY           SKY/WX    TMP DP  RH WIND       PRES   REMARKS
COLUMBIA       SUNNY     71  52  50 NW3       30.12F
JEFFERSON CITY SUNNY     70  52  52 VRB3      30.11F
ROLLA          MOSUNNY   65  54  67 SW5       30.12F
SEDALIA        MOSUNNY   71  54  54 CALM      30.12F
WHITEMAN AFB   MOSUNNY   70  55  59 VRB3      30.10F
OSAGE BEACH    PTSUNNY   66  55  68 S3        30.12F

$$
MOZ051-052-059>065-162200-
...EAST CENTRAL MISSOURI...

CITY           SKY/WX    TMP DP  RH WIND       PRES   REMARKS
ST LOUIS INTL  PTSUNNY   64  52  63 CALM      30.13F
SPIRIT OF STL  PTSUNNY   65  53  65 E3        30.12F
ST CHARLES     PTSUNNY   63  51  65 E5        30.13F

$$
MOZ072>076-082>087-097>100-106>115-162200-
...SOUTH CENTRAL AND SOUTHEAST MISSOURI...

CITY           SKY/WX    TMP DP  RH WIND       PRES   REMARKS
CAPE GIRARDEAU MOSUNNY   68  55  63 NE9       30.11F
FARMINGTON     PTSUNNY   68  54  60 N5        30.13F
POPLAR BLUFF   CLOUDY    71  55  56 E7        30.09F
WEST PLAINS    CLOUDY    68  57  68 NE6       30.13F

$$


USA.gov is the U.S. government's official web portal to all federal, state and local government web resources and services.